Regional Weather Roundup
Issued by NWS

Home | Current Version | Previous Version | Graphics & Text | Print | Product List | Glossary On
Versions: 1 2 3 4 5 6 7 8 9 10 11 12 13 14 15 16 17 18 19 20 21 22 23 24 25 26 27 28 29 30 31 32 33 34 35 36 37 38 39 40 41 42 43 44 45 46 47 48 49 50
000
ASUS43 KDMX 212301
RWRIA

WEATHER ROUNDUP FOR IOWA
NATIONAL WEATHER SERVICE DES MOINES IA
600 PM CDT SAT APR 21 2018

NOTE: "FAIR" INDICATES FEW OR NO CLOUDS BELOW 12,000 FEET WITH NO
SIGNIFICANT WEATHER AND/OR OBSTRUCTIONS TO VISIBILITY.

* - THESE STATIONS ARE NOT NWS STATIONS...THUS NOT UNDER NWS
QUALITY CONTROL.  THEY ALSO DO NOT REPORT WEATHER SUCH
AS PRECIPITATION OR FOG.

IAZ001>003-012>014-020>022-031>034-043>046-220000-
   NORTHWEST IOWA

CITY           SKY/WX    TMP DP  RH WIND       PRES   REMARKS
CARROLL *      CLOUDY    54  32  43 E8        30.26S
CHEROKEE *     CLOUDY    50  39  65 E8        30.29R
DENISON *      CLOUDY    54  27  35 E7        30.28R
LE MARS *      CLOUDY    54  36  50 E9        30.28R
ORANGE CITY *  CLOUDY    54  37  54 E8        30.29R
SHELDON *      CLOUDY    50  37  62 E14       30.28S
SIOUX CITY     CLOUDY    55  28  35 E10       30.26R
SPENCER        CLOUDY    45  35  68 NE12      30.30S
STORM LAKE *   MOSUNNY   50  41  71 NE10      30.28R
$$

IAZ055>058-069>071-079>083-090>094-220000-
   SOUTHWEST IOWA

CITY           SKY/WX    TMP DP  RH WIND       PRES   REMARKS
ATLANTIC *     CLOUDY    54  30  40 NE9       30.23F
AUDUBON *      PTSUNNY   52  28  40 CALM      30.27R
CLARINDA *     PTSUNNY   59  25  27 E15G21    30.22R
COUNCIL BLFS * CLOUDY    54  34  47 E7        30.23F
CRESTON *      CLOUDY    57  25  28 E17       30.23F
HARLAN  *      CLOUDY    54  30  40 E5        30.28R
LAMONI         CLOUDY    57  31  37 NE14G21   30.20F
RED OAK *      MOSUNNY   59  27  29 E14G21    30.21S
SHENANDOAH *   CLOUDY    59  25  27 NE15      30.20S
$$

IAZ047>049-059>061-072>074-084-220000-
   CENTRAL IOWA

CITY           SKY/WX    TMP DP  RH WIND       PRES   REMARKS
AMES           CLOUDY    56  26  31 E8        30.27F
ANKENY *       CLOUDY    57  28  33 E6        30.27S
BOONE *        CLOUDY    55  28  35 E7        30.26F
CHARITON *     CLOUDY    59  27  29 E10       30.24S
DES MOINES     CLOUDY    58  24  27 E6        30.26R
GRINNELL*      CLOUDY    55  24  29 E7        30.28S
KNOXVILLE *    CLOUDY    59  19  21 E12       30.24S
MARSHALLTOWN   CLOUDY    57  30  35 E10       30.28R
NEWTON *       CLOUDY    55  27  33 E8        30.27S
PELLA *        CLOUDY    58  22  25 E5        30.26F
$$

IAZ004>006-015-016-023>025-035-036-220000-
   NORTH CENTRAL IOWA

CITY           SKY/WX    TMP DP  RH WIND       PRES   REMARKS
ALGONA *       CLOUDY    46  37  71 NE9       30.30F
CLARION *      CLOUDY    57  36  44 E16       30.29R
ESTHERVILLE    CLOUDY    41  33  73 NE10      30.30F
FORT DODGE *   CLOUDY    58  27  30 SE12      30.28R
MASON CITY     CLOUDY    48  40  73 NE10      30.32F
FOREST CITY *  PTSUNNY   48  34  57 NE6       30.31F
WEBSTER CITY * CLOUDY    57  30  35 S13       30.26S
IOWA FALLS *   PTSUNNY   60  29  31 E10       30.30R
$$

IAZ007>011-017>019-026>030-037>042-050>054-066-220000-
   NORTHEAST IOWA

CITY           SKY/WX    TMP DP  RH WIND       PRES   REMARKS
CEDAR RAPIDS   FAIR      55  29  36 E12       30.29S
CHARLES CITY * FAIR      55  39  54 E14       30.32S
CLINTON *        N/A     55  33  43 E14       30.32S
DECORAH *      FAIR      54  32  43 E8        30.32F
DUBUQUE        FAIR      53  31  42 E8        30.34R
MONTICELLO *   FAIR      55  28  35 E12       30.31F
OELWEIN *      PTSUNNY   54  36  50 E12G18    30.32F
WATERLOO       FAIR      56  33  42 E15       30.30S
$$

IAZ064-065-067-068-078-220000-
   EAST CENTRAL IOWA

CITY           SKY/WX    TMP DP  RH WIND       PRES   REMARKS
DAVENPORT      FAIR      56  25  30 E13       30.32F
IOWA CITY      FAIR      56  29  35 NE10      30.31R
MT. PLEASANT * CLOUDY    59  23  25 E10       30.26S
MUSCATINE *    FAIR      59  27  29 E13G18    30.30R
QUAD CITIES    FAIR      58  27  30 E17       30.28F
$$

IAZ062-063-075>077-085>089-095>099-220000-
   SOUTHEAST IOWA

CITY           SKY/WX    TMP DP  RH WIND       PRES   REMARKS
BURLINGTON     CLOUDY    60  25  26 E12       30.25S
FAIRFIELD *    CLOUDY    57  25  28 E9G15     30.25S
FORT MADISON * CLOUDY    61  28  29 E12       30.26R
KEOKUK *       CLOUDY    61  28  29 E10       30.24S
OSKALOOSA *    FAIR      58  22  24 E10       30.25S
CENTERVILLE *    N/A     57  27  30 CALM      30.25R
OTTUMWA        CLOUDY    58  23  26 E9        30.25R
WASHINGTON *   CLOUDY    59  25  27 E14       30.28R
$$

ABBREVIATIONS USED IN REMARKS
   TC - TEMPERATURES IN CELSIUS
  WCI - WIND CHILL INDEX
   HX - HEAT INDEX
  VSB - VISIBILITY
$$





USA.gov is the U.S. government's official web portal to all federal, state and local government web resources and services.